Location: Emory University Observatory
(33.7903°N, 84.3267°W)
Time: 15:45:04
(UTC-05:00)

Envisat - Pass Details

Date: 13 October 2017
Orbit: 764 x 766 km, 98.2° (Epoch: 10 December)

Event Time Altitude Azimuth Distance (km) Brightness Sun altitude
Exits shadow 20:56:57 22° 22° (NNE) 1,619 4.5 -23.9°
Drops below altitude 10° 20:59:03 10° 7° (N) 2,309 5.5 -24.4°
Sets 21:01:30 0° 359° (N) 3,239 6.3 -24.9°
